Flag for Germany Weather past 2 weeks in Düren, North Rhine-Westphalia, Germany

Now
59 °F

Partly sunny.


Feels Like: 56 °F
Forecast: 53 / 66 °F
Wind: 17 mph from Southwest

Location: Noervenich

Current Time: Jul 28, 2015 at 10:32:12 AM

Latest Report: Jul 28, 2015 at 9:20 AM


Visibility: N/A

Pressure: 29.71 "Hg

Humidity: 72%

Dew point: 50 °F

Location of DürenLocation

Historic Weather in Düren — Graph

°F

Düren temperature yesterday

Maximum temperature yesterday: 68 °F (at 3:20 PM)
Minimum temperature yesterday: 57 °F (at 12:20 AM)
Average temperature yesterday: 62 °F

Past Weeks' High & Low Weather Summary

 TemperatureHumidityPressure
High93 °F (Jul 17, 3:20 PM)100% (Jul 19, 4:20 AM)30.12 "Hg (Jul 19, 4:20 AM)
Low50 °F (Jul 26, 3:20 AM)23% (Jul 17, 3:20 PM)29.53 "Hg (Jul 25, 7:20 AM)
Average68 °F73%29.92 "Hg
* Reported Jul 13 8:20 AM — Jul 28 8:20 AM, Düren, Weather by CustomWeather, © 2015

Note: Actual official high and low records may vary slightly from our data, if they occured in-between our weather recording intervals... More about our weather records

Advertising

Düren weather history for previous 24 hours

 ConditionsComfort  
Time TempWeatherWind HumidityBarometerVisibility
8:20 AM
Tue, Jul 28
59 °FPartly sunny.15 mph72%29.71 "HgN/A
7:20 AM57 °FScattered clouds.13 mph77%29.68 "HgN/A
6:20 AM55 °FPassing clouds.12 mph77%29.68 "HgN/A
5:20 AM55 °FPassing clouds.9 mph72%29.68 "HgN/A
4:20 AM55 °FPassing clouds.7 mph77%29.68 "HgN/A
3:20 AM55 °FPassing clouds.9 mph77%29.68 "HgN/A
2:20 AM55 °FPassing clouds.8 mph82%29.68 "HgN/A
1:20 AM57 °FPassing clouds.6 mph77%29.71 "HgN/A
12:20 AM59 °FPassing clouds.8 mph82%29.68 "HgN/A
11:20 PM
Mon, Jul 27
61 °FPartly cloudy.16 mph77%29.68 "HgN/A
10:20 PM61 °FBroken clouds.9 mph88%29.68 "HgN/A
9:20 PM63 °FScattered clouds.7 mph83%29.65 "HgN/A
8:20 PM64 °FScattered clouds.7 mph83%29.65 "HgN/A
7:20 PM64 °FScattered clouds.9 mph83%29.65 "HgN/A
6:20 PM68 °FPartly sunny.15 mph64%29.62 "HgN/A
5:20 PM66 °FPartly sunny.16 mph68%29.62 "HgN/A
4:20 PM68 °FPartly sunny.20 mph60%29.62 "HgN/A
3:20 PM68 °FPartly sunny.20 mph60%29.59 "HgN/A
2:20 PM64 °FBroken clouds.18 mph73%29.59 "HgN/A
1:20 PM64 °FBroken clouds.16 mph68%29.62 "HgN/A
12:20 PM64 °FBroken clouds.13 mph73%29.59 "HgN/A
11:20 AM63 °FBroken clouds.13 mph73%29.59 "HgN/A
10:20 AM63 °FSprinkles. Broken clouds.12 mph73%29.59 "Hg4 mi
Weather by CustomWeather, © 2015

See weather overviewHow to use our weather pages